Wind_Speed
14 6 7 11 10 12 12 10 7 4 6 6 5 6 7 6 7 9 11 9 8 9 10 13 15 12 20 23 21 31 35 28 30 31 32 36 38 40 41 43 44 44 46 47 46 45 44 43 42 42 42 40 40 39 37 37 37 38 40 39 37 35 34 35 36 35 33 32 30 29 29 29 28 26 24 23 24 22 20 18 16 13 13 16 17 15
12 7 12 15 10 9 10 10 8 6 8 8 6 6 7 6 8 11 13 10 8 8 10 14 15 12 20 22 22 30 27 22 29 31 32 37 38 40 43 43 45 45 43 43 45 46 45 44 43 42 44 44 43 42 40 39 37 37 39 40 39 36 35 37 37 37 37 35 33 32 31 31 29 27 25 24 24 24 21 19 17 15 13 16 17 16
8 12 17 13 7 7 9 10 11 10 10 8 6 5 6 6 6 9 12 9 7 7 8 14 15 11 17 21 22 26 24 26 38 39 38 42 39 39 42 44 45 44 42 42 45 48 47 46 45 43 45 46 45 44 43 41 39 36 37 40 40 39 38 38 38 38 38 36 34 32 30 30 29 28 26 24 23 24 22 20 18 16 14 15 17 17
8 13 14 10 7 10 10 11 13 11 9 8 7 6 6 7 5 7 10 7 5 6 7 13 14 8 13 17 18 27 31 32 42 46 45 47 45 44 47 47 47 45 45 45 46 49 49 48 48 46 46 47 46 45 45 44 41 39 38 39 40 40 40 40 40 39 38 36 34 32 30 28 28 27 26 24 23 24 24 22 20 19 16 14 16 17
10 6 11 13 11 12 11 11 12 10 8 10 11 9 8 10 11 10 9 5 4 6 7 12 10 6 10 15 14 22 29 29 35 39 36 40 44 46 47 47 48 49 49 49 48 49 50 50 51 50 48 48 48 48 47 46 44 42 40 39 39 39 39 40 42 41 39 38 36 33 31 29 27 26 26 26 26 26 26 25 24 21 19 16 15 16
13 7 15 17 14 13 13 11 12 11 7 9 14 14 13 13 13 13 10 5 4 6 6 10 9 5 7 17 17 17 18 19 23 25 26 32 36 38 42 43 46 49 50 51 51 50 51 52 52 52 51 50 51 51 49 47 46 43 41 40 40 40 39 38 40 42 41 40 38 36 35 33 31 30 29 29 29 29 28 27 25 23 21 19 16 16
10 9 12 14 15 16 14 11 13 12 7 8 13 16 16 14 14 14 8 3 4 4 6 8 10 6 5 12 19 19 18 19 18 17 22 30 33 35 40 43 46 47 48 50 51 50 51 52 53 54 54 53 53 52 50 48 47 45 42 41 42 42 41 39 39 41 42 42 40 39 37 36 34 32 31 30 29 30 29 27 25 23 21 20 18 17
9 12 11 13 16 14 13 11 12 14 9 7 10 13 15 15 16 16 8 4 5 4 5 5 6 6 5 9 17 22 22 19 17 16 17 25 32 37 41 44 47 48 49 50 50 50 51 53 54 56 56 55 54 52 51 50 49 47 44 42 43 43 43 41 39 41 42 43 42 40 39 37 35 33 31 30 29 29 29 27 25 23 22 20 18 17
10 14 14 13 14 11 12 13 13 15 11 6 8 11 14 15 16 15 8 5 5 4 6 5 4 5 5 7 13 20 22 18 18 19 17 21 32 38 40 44 47 49 50 51 51 51 52 53 55 56 56 55 53 52 52 51 50 48 46 43 43 44 45 43 41 41 42 42 42 41 40 38 36 34 31 30 29 27 28 29 27 25 23 22 20 18
7 15 17 13 11 10 11 12 12 14 12 7 7 8 10 13 15 12 7 6 6 5 8 8 4 4 5 5 9 14 17 17 18 19 18 23 34 39 41 44 45 46 48 49 52 52 52 53 54 54 54 54 53 53 52 51 50 49 48 46 45 45 45 45 44 43 42 42 42 41 41 40 38 36 33 32 30 28 28 29 29 28 26 24 23 20
7 14 19 14 12 10 9 12 13 14 13 9 8 8 7 8 9 8 5 5 5 6 10 11 7 6 5 5 7 11 15 19 18 16 16 22 32 39 41 43 45 46 47 48 50 52 52 51 51 52 52 52 53 52 52 52 51 50 49 48 46 45 45 46 45 45 43 42 42 42 41 40 39 37 35 34 32 30 29 30 30 30 28 26 25 22
10 11 11 13 19 15 8 10 14 15 15 10 7 8 7 5 5 5 3 4 6 6 8 9 8 7 6 5 5 8 14 21 21 19 20 21 28 37 39 42 46 47 47 47 48 50 51 48 47 49 52 53 52 52 52 53 52 51 51 49 48 47 46 46 45 45 45 44 43 42 42 41 40 38 37 35 34 32 31 30 30 30 29 28 27 24
11 13 7 9 20 20 11 8 9 12 13 10 7 6 6 4 4 5 4 3 5 6 7 7 8 6 6 6 7 8 10 15 19 23 27 26 28 36 39 42 45 46 46 46 47 49 51 51 49 49 52 53 53 54 54 53 53 52 51 50 49 48 47 45 45 45 45 45 44 44 43 42 41 40 38 36 34 33 32 30 29 29 30 29 28 26
6 10 12 11 12 16 15 8 6 9 10 10 9 7 6 6 6 6 5 3 4 6 8 7 6 5 5 5 9 11 9 11 19 26 36 39 39 41 44 45 45 45 47 48 49 49 50 52 51 50 52 54 55 55 55 54 54 53 52 51 50 48 47 46 45 45 45 45 45 44 43 42 42 41 40 38 36 34 32 31 29 28 28 27 27 26
7 7 11 13 6 9 15 11 8 9 9 11 10 8 7 6 6 5 4 5 4 4 6 5 5 5 5 5 8 10 10 13 23 30 39 45 48 49 47 45 44 45 47 48 49 49 50 53 53 51 52 54 55 55 55 55 55 54 53 52 51 49 48 47 46 46 46 45 44 44 44 42 42 41 39 39 37 35 33 31 30 29 27 26 24 24
9 8 5 10 9 8 13 12 11 10 9 10 9 7 8 6 5 3 3 5 4 2 4 4 4 5 5 6 5 5 8 9 20 28 32 35 39 40 39 39 42 45 47 47 48 49 51 53 53 52 52 53 54 55 55 55 55 55 54 53 52 50 49 48 47 47 47 45 44 44 44 43 41 40 39 39 38 36 35 32 30 29 28 26 24 22
6 8 4 9 14 14 14 11 12 12 7 6 8 9 8 6 6 3 4 2 4 5 5 4 4 3 2 6 6 4 6 4 11 20 24 30 33 32 32 37 41 43 46 49 50 52 52 53 54 54 53 53 54 54 55 56 56 56 55 54 52 51 50 49 48 47 47 47 46 46 45 44 42 40 39 38 37 36 35 33 31 29 29 28 25 24
4 6 6 9 14 18 21 16 12 14 10 6 9 9 5 4 4 4 2 2 3 5 4 4 6 4 1 5 6 6 8 7 8 15 19 26 30 29 32 38 42 45 48 51 52 53 52 53 55 55 54 54 55 56 57 57 56 55 54 53 53 52 51 50 49 48 47 48 48 47 46 45 44 42 40 38 37 36 35 34 32 31 30 29 27 26
7 5 7 10 12 14 18 15 10 13 14 10 9 9 8 5 6 5 4 4 4 4 3 4 6 5 4 5 4 6 11 11 9 13 18 21 23 28 34 39 43 46 47 48 49 49 50 53 56 56 55 55 56 57 57 56 55 54 53 53 52 51 50 50 49 48 47 48 48 48 48 47 45 44 42 39 38 37 37 36 34 33 31 30 29 28
6 3 4 9 8 6 9 10 8 12 13 9 7 8 8 5 6 5 3 4 4 4 3 3 4 5 5 6 8 11 14 14 11 11 16 19 24 32 37 40 44 44 43 45 47 48 51 53 56 57 57 56 57 57 55 54 54 54 53 52 51 50 49 49 49 48 48 48 49 49 48 48 47 45 44 42 40 39 38 37 36 34 33 32 31 30
6 2 4 7 7 5 5 8 12 12 9 8 7 8 8 4 3 4 2 3 5 3 4 4 4 6 6 7 13 17 15 14 14 13 14 20 30 38 41 42 44 44 44 46 47 48 51 53 54 56 57 56 55 54 53 53 54 53 53 52 51 51 50 50 49 48 48 48 48 49 48 48 47 46 45 44 43 42 40 39 37 36 34 33 32 31
6 3 4 6 6 5 6 7 13 15 10 8 7 7 10 6 5 6 5 3 4 3 4 5 4 7 7 7 12 16 15 15 16 14 13 19 32 40 43 46 46 46 46 46 47 49 50 51 52 54 55 54 52 51 52 52 52 52 52 52 52 51 50 50 49 48 48 47 47 48 48 48 48 47 46 45 44 44 42 40 39 37 36 35 34 33
8 3 4 6 5 9 14 12 10 14 13 10 7 6 9 7 6 8 7 5 6 5 4 4 3 6 7 7 10 14 15 16 19 16 12 20 34 40 43 46 46 47 49 49 49 50 50 51 52 52 54 53 52 52 52 52 52 52 53 53 52 51 51 50 49 47 46 46 46 47 47 48 48 48 47 46 46 45 44 42 40 39 38 37 35 34
10 3 2 6 7 9 13 11 9 10 12 10 7 6 8 10 9 8 6 5 6 7 5 2 4 7 8 5 7 12 16 17 20 19 17 22 33 40 43 45 45 47 49 49 49 49 48 48 48 50 52 53 53 52 52 53 53 53 52 52 51 51 51 50 49 47 46 46 45 45 46 48 48 48 48 47 47 46 44 43 42 41 40 39 37 36
8 3 3 6 5 5 6 5 5 6 8 8 8 10 11 14 12 6 4 5 5 8 8 5 4 7 7 5 4 8 14 13 13 17 24 28 33 39 43 44 45 46 46 46 45 44 43 43 45 49 52 53 53 53 54 54 54 53 52 51 51 51 50 50 49 48 47 46 45 44 45 46 47 48 48 48 47 47 45 44 43 42 41 40 40 38
5 3 2 3 3 3 5 4 2 3 3 5 10 15 13 13 14 7 4 5 5 6 7 6 6 8 8 8 9 4 11 12 9 14 24 32 37 40 40 40 42 44 44 43 43 42 43 44 46 50 52 53 53 53 54 54 53 52 50 50 50 50 50 49 48 48 47 46 45 45 45 45 46 47 47 48 47 46 46 45 44 43 42 41 41 40
3 3 5 6 7 6 7 10 10 8 7 9 11 16 15 13 14 10 5 5 6 5 6 8 9 9 8 8 9 4 6 9 9 11 15 25 36 40 41 41 42 43 43 44 45 45 45 47 48 50 51 52 52 51 52 52 51 50 50 49 49 48 48 48 48 48 47 46 46 46 45 45 45 45 45 46 46 46 45 45 45 44 43 41 41 41
2 4 7 9 11 13 15 19 19 14 11 13 13 15 18 14 13 12 7 7 7 6 5 9 9 10 8 8 8 3 6 8 8 9 13 23 33 38 42 44 44 43 44 46 47 47 47 48 49 49 49 50 50 49 49 49 49 49 50 49 48 48 48 48 48 47 47 47 46 46 46 45 44 43 44 44 45 45 45 45 45 44 43 42 42 42
1 5 7 9 16 20 19 19 17 14 13 12 13 15 21 17 16 14 9 8 9 8 8 9 10 11 8 7 8 7 5 7 8 12 21 28 33 36 40 42 42 42 43 44 47 49 50 50 49 49 50 49 49 48 47 46 47 48 48 48 48 48 48 48 48 47 47 47 47 46 45 44 44 44 44 44 45 45 45 45 45 44 44 43 42 42
2 4 7 12 18 20 18 14 11 10 9 9 10 11 20 20 17 15 10 8 8 8 9 9 10 11 9 8 8 7 5 6 8 11 20 28 30 32 36 38 39 41 41 42 45 48 51 51 51 50 50 49 48 47 46 46 47 47 48 48 48 48 48 48 47 47 47 47 47 46 45 44 44 44 45 45 46 46 46 46 46 45 45 44 43 42
3 4 9 12 12 13 13 11 11 12 10 9 9 5 15 20 18 15 11 8 6 7 7 8 9 9 6 2 2 2 6 10 9 7 12 24 31 33 35 37 39 41 41 42 44 45 46 47 48 49 49 49 48 47 47 47 47 47 48 48 48 48 47 47 46 47 47 47 46 45 44 44 44 45 45 46 46 46 46 46 46 47 46 45 44 43
3 4 7 8 7 8 9 13 16 16 12 6 6 8 6 15 14 11 10 7 4 5 4 6 6 7 4 3 6 7 9 10 8 6 8 18 29 33 34 34 36 40 42 43 43 41 40 41 43 47 48 48 47 47 47 47 46 47 48 48 47 46 45 45 46 46 46 45 44 44 44 44 44 44 45 46 46 46 46 46 47 47 47 47 45 44
4 4 5 5 6 7 9 15 16 12 7 3 6 12 7 5 7 3 3 4 4 0 4 5 6 6 4 7 10 9 9 8 6 7 10 15 23 29 31 32 35 39 42 44 43 41 41 41 43 45 45 45 46 46 47 47 47 47 47 46 45 45 44 45 45 45 44 44 43 42 42 41 41 42 43 44 45 46 46 47 47 48 48 47 46 45
6 5 5 4 3 7 13 16 12 3 3 2 5 15 14 6 16 16 10 11 14 10 4 4 4 4 5 9 14 11 9 11 13 16 16 19 22 21 21 23 29 33 35 38 41 42 42 42 42 42 43 43 44 44 45 46 45 44 43 43 43 43 44 44 44 44 43 42 42 41 40 40 40 40 40 40 41 43 45 47 47 48 48 47 47 47
8 6 5 3 3 6 10 9 3 4 2 5 4 14 17 10 14 19 18 18 19 17 14 10 3 7 5 9 18 19 18 22 29 30 27 24 27 28 25 21 21 23 25 28 32 35 37 39 39 39 39 40 42 42 43 43 43 41 41 41 41 42 42 43 43 43 42 42 41 40 40 39 39 38 38 37 38 40 42 44 46 47 47 47 47 48
9 6 3 3 4 4 5 4 3 6 4 7 8 14 18 15 12 13 17 18 18 16 14 12 8 7 8 12 20 25 30 34 36 33 30 29 32 34 33 29 26 24 23 22 24 25 27 30 32 32 32 32 34 36 39 39 39 39 39 39 39 40 41 41 42 42 42 42 42 41 40 40 39 38 37 37 37 39 40 41 43 44 45 46 47 47
10 7 2 3 3 2 4 5 3 3 6 7 9 13 13 10 11 8 6 10 15 17 14 12 11 7 5 10 16 25 35 34 24 21 25 29 32 35 36 34 31 31 29 26 24 23 21 20 20 20 22 23 25 29 32 35 36 36 35 35 36 38 39 40 41 42 42 42 42 41 40 40 39 39 38 37 38 39 38 38 39 40 42 44 45 46
11 7 2 3 3 4 5 4 4 4 3 4 11 17 16 12 13 9 1 7 13 18 17 13 11 10 7 2 5 18 29 23 10 9 19 25 29 34 36 34 32 32 31 29 27 26 24 23 21 20 20 20 21 23 26 29 30 31 31 31 33 35 37 39 40 41 42 42 41 41 40 40 40 39 39 39 39 39 38 37 37 37 38 40 42 43
10 7 3 3 4 4 4 3 3 1 1 8 16 19 23 25 18 7 3 7 10 17 20 16 12 12 10 8 6 14 19 13 4 6 16 23 29 33 34 33 31 30 29 27 25 24 23 23 22 22 21 21 20 20 21 23 25 26 28 28 29 32 34 37 38 38 40 40 40 40 40 39 40 40 39 40 39 39 38 37 36 36 36 37 39 39
6 5 4 4 4 5 4 3 2 1 2 11 16 18 27 32 19 2 7 6 8 15 20 17 14 15 16 15 15 15 12 8 6 9 17 26 30 32 33 32 30 28 26 24 23 20 18 17 18 19 19 17 17 17 18 21 22 22 24 25 26 29 31 33 33 34 36 37 38 39 39 39 40 40 40 39 39 38 38 37 36 36 37 37 38 38
2 3 4 4 4 4 5 4 2 1 2 10 18 24 31 25 7 6 7 1 7 13 18 19 18 20 22 22 20 15 13 15 17 18 23 28 30 31 30 29 28 27 24 22 20 19 17 15 13 12 12 12 12 13 15 18 20 20 21 22 24 26 28 28 29 30 31 33 35 37 38 39 39 40 39 38 37 37 37 37 37 37 37 37 38 38
2 2 2 3 3 3 4 4 2 1 3 14 23 27 24 10 3 6 4 3 7 11 16 21 23 23 24 26 25 21 22 25 27 27 27 28 29 30 28 25 25 24 22 20 18 16 15 13 11 9 6 5 6 8 10 14 17 18 19 21 23 24 25 26 28 28 28 29 30 32 34 36 38 38 38 37 36 36 37 37 37 37 38 38 38 38
1 1 1 1 2 2 3 2 2 0 7 19 21 16 14 9 5 5 6 6 10 15 18 22 26 26 25 25 27 27 27 28 28 28 28 28 28 28 26 24 23 21 19 18 17 15 13 10 9 8 6 2 2 4 6 9 12 14 17 19 21 24 25 25 26 28 28 28 27 27 28 31 34 36 36 36 35 35 35 35 36 37 38 38 38 38
4 3 1 1 2 2 0 2 3 2 4 14 14 7 7 9 11 12 10 9 13 19 21 23 26 29 28 25 25 28 29 29 28 27 27 28 27 26 25 24 22 20 18 17 15 13 11 10 9 8 6 3 1 3 4 5 7 10 13 16 19 22 24 25 25 25 26 27 28 27 26 26 28 31 33 34 33 33 33 34 35 36 38 38 38 37
4 4 2 2 3 2 2 1 3 5 4 6 13 11 10 14 16 15 13 14 18 21 24 25 26 29 30 27 26 27 28 27 27 26 26 26 25 24 24 23 22 21 19 17 14 10 9 9 7 6 6 5 2 2 3 4 5 8 10 13 15 18 20 22 23 24 24 25 26 27 26 25 25 27 29 30 31 31 32 32 34 36 37 37 37 36
6 6 4 3 4 4 3 2 6 10 6 11 16 14 13 15 15 14 14 16 19 21 23 26 26 27 29 29 27 27 27 25 25 25 25 24 23 22 21 21 21 20 20 19 16 12 9 8 7 6 5 4 3 3 3 4 6 7 9 11 12 14 15 16 18 20 22 22 22 23 24 24 23 24 25 27 28 28 29 30 32 34 35 36 35 35
5 8 7 3 3 4 3 2 9 12 11 17 18 15 15 16 14 15 16 15 17 19 19 21 23 24 26 27 27 26 26 25 24 23 23 23 22 21 20 19 19 18 18 18 17 15 12 9 9 9 9 7 6 5 6 7 7 8 9 10 11 12 14 14 14 15 17 18 19 20 21 22 21 21 22 24 24 25 27 28 30 32 33 33 32 31
6 11 9 3 3 6 4 4 14 14 9 16 18 14 15 16 14 16 18 17 18 18 16 17 19 19 21 24 24 23 24 24 23 22 21 21 20 20 20 19 17 15 15 15 16 15 13 11 11 12 12 12 10 9 9 10 10 9 9 10 11 12 14 15 15 15 15 16 18 19 20 20 19 20 21 22 24 26 27 27 28 29 29 28 28 28
10 10 7 4 6 7 4 6 16 14 7 11 16 14 14 15 14 15 16 17 19 19 17 16 16 15 16 19 20 20 20 20 21 19 18 18 18 17 17 17 15 13 12 12 14 14 14 13 12 11 12 12 12 12 13 12 12 11 10 10 12 13 14 15 15 16 16 17 17 18 18 18 19 20 21 24 26 27 27 26 26 26 24 23 23 24
8 5 5 7 6 4 4 9 12 7 5 9 14 16 17 17 15 13 13 16 18 18 16 15 14 14 14 15 16 18 17 16 18 18 16 15 16 16 15 14 13 11 11 11 13 13 14 13 11 10 11 12 12 13 14 13 11 10 10 11 12 13 15 16 16 15 16 17 18 18 19 19 20 21 22 24 25 25 24 24 25 24 23 22 21 21
8 6 7 7 7 10 14 16 12 6 7 15 20 20 20 18 15 13 13 13 13 13 13 14 16 16 16 15 15 17 16 14 16 18 17 16 16 15 15 14 12 12 12 12 12 12 11 11 10 10 11 11 11 11 12 12 11 10 10 10 10 12 14 16 17 16 16 16 18 19 20 21 21 22 22 23 24 24 24 24 25 24 24 23 22 20
Wind_Direction
196 195 218 217 215 210 214 215 205 222 242 236 223 225 240 237 240 240 237 230 180 184 211 205 218 202 166 174 174 171 175 172 173 176 180 182 180 181 182 184 188 190 194 195 195 195 196 198 199 199 200 201 202 204 205 205 205 204 203 204 203 200 199 199 199 201 200 199 199 200 201 202 203 206 206 205 206 209 213 217 221 223 220 218 216 212
196 211 229 219 211 205 208 213 206 219 244 249 239 234 244 238 241 243 241 234 185 186 216 207 216 204 170 175 171 167 173 176 178 180 183 185 183 183 183 185 189 192 193 194 194 195 196 197 199 200 200 200 200 202 205 205 205 205 205 206 205 201 198 199 200 201 201 201 201 201 202 204 205 206 208 206 204 207 212 216 222 226 222 215 215 214
198 227 228 210 194 200 199 204 209 220 234 244 248 243 246 241 256 265 256 245 201 194 213 204 212 203 173 176 170 167 174 181 183 184 184 184 183 183 184 185 187 189 190 191 193 194 196 197 197 197 198 199 201 203 205 205 205 206 205 207 208 204 200 200 202 203 203 203 203 204 204 205 206 207 209 208 204 205 211 215 220 226 223 213 213 214
203 230 218 192 187 201 202 200 202 217 228 234 241 234 244 242 240 260 259 254 226 218 205 195 206 202 171 175 173 174 179 183 187 188 186 184 182 183 185 186 186 187 188 190 192 193 195 196 195 196 197 198 200 202 203 203 205 206 205 207 207 205 202 201 204 205 205 204 204 206 207 208 209 209 210 209 204 204 210 214 218 224 222 212 210 212
223 215 170 182 202 202 204 204 198 206 221 229 235 230 236 239 231 239 254 287 302 266 217 183 197 214 171 172 181 182 182 187 191 191 188 187 184 183 184 186 186 187 189 190 192 193 194 195 196 197 197 198 199 201 202 204 206 206 207 208 207 205 202 201 203 205 205 205 205 204 205 207 208 208 209 207 204 204 208 214 218 222 220 214 210 211
235 202 161 183 204 204 209 210 199 198 207 224 232 230 230 239 243 245 255 284 310 291 247 182 185 237 187 175 183 186 186 193 194 192 190 188 186 183 182 185 187 189 191 191 192 193 194 196 196 197 198 198 199 201 204 206 207 207 208 209 208 206 204 201 201 203 204 205 205 203 203 204 205 207 210 209 207 208 210 214 218 221 222 220 216 213
230 204 176 186 196 203 213 216 208 197 196 219 225 228 230 238 250 253 258 250 232 264 258 202 186 212 217 186 184 184 188 192 193 195 193 186 183 183 183 185 187 189 191 192 192 193 194 195 195 196 197 198 200 202 205 206 207 207 209 210 209 209 208 205 202 204 205 205 206 206 206 207 208 210 212 212 212 213 214 216 218 220 222 222 219 215
202 200 197 197 196 201 210 214 208 197 202 218 210 221 233 237 246 251 254 242 239 273 288 252 203 197 208 196 187 185 189 190 190 197 195 186 183 184 186 186 187 189 190 191 191 192 193 194 196 197 197 199 202 202 203 204 205 207 209 210 210 210 210 209 205 205 206 207 207 208 208 210 212 214 214 214 214 214 215 218 220 221 222 222 219 216
185 201 203 203 203 203 209 210 201 200 215 219 188 206 229 238 247 250 250 253 261 288 294 277 222 212 229 207 187 184 188 188 191 195 192 187 187 187 188 188 189 190 191 191 191 192 194 195 197 198 199 200 201 201 202 204 205 207 209 210 210 211 211 211 209 207 208 209 209 209 210 211 214 217 217 216 215 213 214 218 221 223 224 224 223 220
184 202 201 207 216 207 209 211 197 201 218 216 201 209 220 231 245 248 238 244 256 257 258 252 205 221 261 226 185 182 186 188 193 196 190 188 190 189 190 190 190 191 192 193 192 193 195 196 198 199 199 199 200 202 203 205 205 206 207 208 209 211 212 212 212 211 211 212 212 212 211 213 214 216 217 216 215 213 214 217 220 223 225 226 226 224
221 206 198 207 223 208 200 207 202 204 210 201 210 229 235 236 246 251 228 216 231 240 248 241 205 209 262 257 201 184 185 187 189 194 191 191 192 193 192 190 190 192 193 195 194 194 195 196 198 198 199 199 200 202 203 203 205 205 206 207 209 211 212 213 214 214 214 214 214 214 213 214 215 216 216 215 215 214 213 215 218 221 224 225 228 227
237 223 203 205 214 207 192 204 205 204 205 198 196 214 239 259 268 267 224 180 210 234 248 228 194 203 240 259 231 204 194 188 185 187 190 193 195 195 194 191 191 193 194 194 195 195 195 195 196 197 199 200 199 200 201 202 204 205 206 208 209 210 212 213 215 215 216 216 216 216 215 216 216 217 217 217 218 217 215 215 216 219 222 224 228 228
227 231 229 213 211 206 199 206 204 202 202 202 197 191 207 224 238 240 220 201 208 228 246 204 176 209 231 235 232 225 214 193 186 187 185 190 195 194 194 193 192 193 193 194 194 195 195 195 196 197 198 199 199 199 200 201 203 204 206 208 209 210 212 214 215 215 216 217 218 218 217 217 217 218 219 220 221 221 220 219 218 219 220 221 224 224
227 230 227 227 218 202 203 203 191 201 197 194 200 187 185 197 208 222 230 235 203 221 243 199 174 224 236 243 232 221 220 191 188 190 185 187 192 193 195 193 191 193 193 194 195 195 196 196 197 198 198 198 199 200 200 201 202 204 206 208 210 211 213 215 216 216 217 218 219 219 219 219 218 219 220 221 222 223 223 224 223 222 220 219 220 220
225 235 219 222 217 183 203 208 181 183 191 199 201 186 191 197 192 199 205 210 199 226 246 200 187 204 187 228 227 213 223 190 181 190 189 190 193 193 193 191 188 192 194 195 196 196 197 197 197 198 198 199 199 200 200 201 202 203 205 208 210 212 214 215 217 218 218 219 220 219 219 219 219 220 221 222 223 224 225 226 226 223 221 220 219 218
226 239 209 213 218 190 206 209 181 173 188 203 196 188 209 196 163 181 202 188 156 173 237 212 208 203 184 245 251 220 245 200 173 183 189 195 197 192 189 188 188 191 193 195 196 196 197 197 197 198 199 199 200 200 200 201 202 204 206 208 211 213 215 216 218 219 220 221 220 220 219 219 219 220 220 221 222 224 226 227 226 224 223 222 220 218
233 237 202 200 216 215 214 206 186 184 180 186 196 202 203 169 150 192 246 241 126 163 236 236 237 276 272 261 268 233 251 238 169 176 184 193 195 188 186 189 191 192 192 195 197 197 198 197 197 198 199 200 200 201 202 202 204 205 207 208 210 212 215 217 219 220 221 221 220 220 221 220 220 219 219 219 220 222 223 224 225 225 225 224 222 221
329 266 240 215 214 216 216 214 205 192 167 163 200 195 151 130 162 173 208 272 157 182 255 251 232 262 234 242 263 226 227 247 192 174 181 189 187 184 188 192 193 194 195 196 198 198 198 197 197 198 200 201 201 203 204 204 205 207 208 210 210 212 213 217 219 220 221 221 220 221 222 222 222 221 221 220 220 220 221 222 223 224 225 226 226 226
342 303 266 244 226 213 207 211 222 206 188 184 190 169 146 172 198 176 179 206 185 189 263 271 236 225 205 228 265 221 217 234 217 179 180 184 181 184 190 193 195 195 196 197 197 198 198 198 198 199 200 202 203 204 205 204 205 206 209 211 213 215 216 217 219 220 221 222 222 223 223 223 223 223 223 223 222 221 221 222 222 222 223 225 228 229
327 310 282 266 254 236 201 195 216 214 201 188 166 163 172 186 184 174 180 174 163 185 216 248 245 235 228 217 225 228 219 220 215 183 178 182 182 186 190 193 196 196 195 196 196 198 199 199 200 200 200 201 202 204 204 203 204 206 209 212 214 217 218 218 218 219 221 222 223 224 225 225 225 224 224 224 224 223 223 223 223 224 223 224 227 230
335 351 297 295 310 294 218 196 207 210 203 186 170 177 186 171 148 172 212 168 146 160 185 194 232 246 244 216 218 227 221 216 213 191 181 185 183 186 190 193 195 195 196 197 197 197 199 200 200 200 201 202 202 202 202 204 205 207 209 212 215 216 216 217 218 219 221 222 223 224 225 226 226 226 225 225 225 225 226 225 225 226 226 225 227 229
343 359 298 294 329 300 253 234 212 206 206 192 175 184 188 167 142 178 230 228 169 163 168 175 223 254 245 215 217 224 217 218 216 196 181 184 182 185 190 193 194 193 195 198 198 198 199 200 199 200 200 201 202 202 202 204 206 207 210 212 215 215 216 218 219 220 221 223 224 225 226 227 227 227 227 227 227 227 227 227 227 228 228 228 228 229
318 304 268 269 282 264 265 274 241 213 209 197 181 183 187 174 158 181 211 209 189 205 197 172 218 267 255 207 203 222 220 216 214 202 177 176 182 186 191 194 193 192 195 198 198 199 200 200 200 200 200 200 202 203 203 204 206 208 211 212 213 214 217 219 220 221 222 223 225 226 226 226 227 227 228 228 229 229 229 229 229 229 230 230 230 231
327 337 307 294 287 268 267 278 276 237 210 200 196 179 183 192 182 178 187 173 182 206 207 207 243 267 271 225 199 222 224 217 212 198 173 170 181 187 191 194 193 192 195 196 197 199 200 199 200 200 200 201 202 204 204 206 208 210 211 211 212 214 217 219 220 221 222 223 225 226 226 226 227 227 228 229 230 231 231 230 230 230 231 232 233 233
334 350 350 324 308 285 271 271 293 265 215 207 204 190 193 196 182 155 144 157 194 209 191 187 231 253 269 288 286 236 214 209 203 182 168 169 180 189 192 193 192 191 194 194 194 196 197 198 200 201 201 201 202 204 206 207 208 209 210 211 213 215 216 218 219 220 221 223 225 225 226 227 228 228 229 230 231 232 232 232 232 232 232 233 234 234
311 287 301 310 281 252 238 223 261 301 276 246 211 196 194 187 179 163 130 157 204 215 192 187 223 259 285 314 323 273 188 183 172 164 168 172 179 187 190 191 191 190 191 191 192 194 195 197 200 201 201 201 203 205 207 208 209 209 211 212 213 215 216 217 218 219 221 223 224 225 226 227 228 230 231 231 232 232 233 233 233 233 233 233 234 235
286 271 264 250 256 268 272 274 286 305 305 283 239 204 188 181 182 173 147 171 186 181 194 209 221 249 282 304 308 298 158 159 152 147 163 172 178 182 185 188 191 190 189 189 191 193 195 198 200 201 201 202 203 205 207 208 208 209 211 212 214 215 216 217 218 219 221 223 224 226 227 228 229 231 232 233 234 234 233 233 234 234 234 234 234 235
279 299 282 259 272 281 281 280 282 285 275 276 268 219 190 180 182 179 182 193 163 145 208 232 223 228 254 273 271 248 140 139 141 144 160 172 177 180 182 185 189 190 188 189 191 193 196 198 200 200 201 202 202 204 206 207 208 209 211 213 214 215 216 217 218 219 222 224 225 227 229 230 231 232 233 234 235 235 235 234 235 235 236 236 235 235
313 286 286 297 304 296 286 278 272 266 252 262 272 224 193 184 187 186 195 193 159 156 210 225 215 215 229 246 250 241 186 158 149 159 167 171 176 178 179 183 187 188 187 188 190 194 197 199 200 200 202 202 202 202 204 206 208 210 212 213 214 215 216 218 219 220 222 223 226 229 231 232 232 233 233 234 234 235 235 235 235 235 236 236 236 237
332 276 299 319 311 296 288 284 285 290 271 275 290 228 191 189 195 188 184 189 177 184 201 194 197 216 225 222 230 237 198 142 126 149 162 165 171 175 177 181 186 187 187 188 191 195 198 200 201 201 202 202 202 203 204 206 208 210 212 213 214 215 217 218 219 220 222 223 227 231 232 233 233 234 234 234 234 235 235 235 235 235 236 237 238 238
339 301 316 324 311 291 293 310 331 333 304 284 312 280 195 192 198 193 183 185 195 207 196 165 180 224 254 229 178 130 104 100 94 112 154 164 168 172 175 180 184 187 189 191 193 197 200 200 201 201 201 202 204 205 206 208 209 210 212 214 214 215 217 218 219 221 223 225 228 231 232 233 234 235 235 235 235 235 236 236 235 235 236 237 238 239
323 302 310 327 318 288 306 335 335 324 308 290 344 345 222 193 193 198 181 159 183 210 166 131 171 230 261 82 80 74 78 85 87 83 122 160 171 173 175 178 182 185 190 193 195 197 199 200 200 201 202 205 206 207 208 209 210 210 212 213 214 215 217 218 220 222 225 228 230 231 232 234 235 236 236 236 236 236 237 236 236 235 235 236 237 238
287 295 311 331 321 284 306 331 322 315 332 360 20 0 321 193 133 119 146 80 20 277 154 160 199 220 191 120 93 75 66 67 64 67 98 143 167 174 174 176 180 185 190 193 195 197 199 201 202 204 206 207 208 209 210 211 211 212 213 214 215 217 217 219 222 224 226 229 230 232 234 235 237 237 237 238 237 237 237 237 236 236 235 236 236 237
278 290 300 310 309 290 309 323 313 314 55 29 17 14 1 53 89 78 58 27 12 8 349 259 207 165 154 122 103 91 73 68 62 59 81 118 138 143 148 161 174 182 188 192 195 198 201 202 202 204 207 209 209 210 210 211 213 214 215 216 217 218 219 221 223 225 227 229 231 233 235 236 237 238 239 239 239 239 238 238 238 237 236 236 236 236
279 281 286 282 257 280 310 328 289 186 212 282 351 24 12 24 73 71 54 30 13 5 352 335 47 105 114 108 103 102 93 78 68 59 63 88 107 110 108 116 142 162 174 182 189 195 200 202 203 205 206 206 206 206 206 210 213 215 215 216 218 220 221 222 224 226 228 230 231 233 235 236 237 238 239 240 239 239 240 240 239 238 237 236 236 236
264 269 274 278 263 278 327 333 212 204 274 322 3 16 7 360 8 35 49 33 8 3 359 353 23 77 104 103 102 103 95 79 67 58 58 71 88 97 98 98 108 125 138 153 166 178 190 199 203 206 206 205 205 205 208 212 215 216 217 218 220 222 223 224 225 227 229 231 232 233 235 236 237 238 239 240 240 239 240 240 241 241 239 238 237 238
245 255 279 281 267 340 342 300 272 298 323 346 1 351 347 344 325 332 49 39 5 1 2 4 16 32 81 106 107 101 90 78 65 52 53 65 78 87 92 94 98 104 109 119 130 139 151 167 180 190 197 202 205 209 213 217 219 220 221 222 223 225 226 227 227 228 230 232 233 234 235 236 237 238 239 240 240 240 240 241 241 242 241 240 240 240
235 237 280 302 292 349 346 311 329 351 328 339 338 324 319 317 303 292 36 45 7 357 357 3 20 22 13 5 117 98 83 74 64 40 46 61 75 83 87 90 94 99 102 108 116 121 128 136 141 150 164 176 185 197 207 214 218 222 224 225 227 227 227 229 230 231 232 233 234 236 237 238 239 240 240 240 241 242 242 242 242 242 242 242 242 243
239 242 260 275 277 310 325 312 317 317 269 328 327 321 321 321 307 275 90 40 357 349 354 0 16 27 15 353 28 80 81 76 71 43 52 66 75 80 84 84 85 91 96 99 105 111 120 129 135 141 149 158 167 178 191 201 209 216 221 225 228 227 229 231 233 234 234 235 236 237 238 240 240 241 242 242 242 243 244 244 244 244 244 244 244 245
248 263 259 251 261 285 290 284 290 221 304 319 320 317 317 315 307 246 92 45 336 340 355 3 18 29 24 25 44 64 73 81 88 68 66 73 76 78 81 80 78 81 83 85 89 95 108 124 138 144 147 153 163 174 186 195 202 209 215 220 224 227 230 234 236 237 238 238 239 239 239 241 241 241 242 243 244 245 245 245 245 244 244 244 245 245
230 261 262 254 261 285 284 279 282 219 306 319 318 316 314 310 318 80 78 354 306 341 7 17 26 34 36 42 53 58 57 67 78 76 72 74 75 75 77 78 76 74 73 74 75 80 90 103 116 132 144 154 166 180 191 198 203 208 212 217 222 226 231 234 236 238 240 241 241 241 241 241 242 242 242 243 245 245 245 245 245 244 245 245 245 245
172 238 261 244 249 268 261 270 287 225 338 331 322 324 331 339 83 68 34 323 329 359 23 30 32 37 44 51 57 59 60 65 69 69 66 67 70 72 73 75 75 73 70 67 64 65 71 79 88 102 120 151 179 193 200 206 212 214 216 220 224 227 231 234 234 236 238 241 242 243 243 243 242 243 242 242 242 242 242 243 244 244 245 245 245 245
35 308 310 279 285 268 237 294 9 69 339 339 334 339 5 34 72 37 15 7 14 25 34 36 36 38 43 52 56 55 57 60 62 64 64 64 67 69 69 70 71 71 72 69 64 59 56 57 65 72 75 94 210 222 223 223 223 224 225 227 229 231 233 235 236 236 236 238 241 244 245 245 244 243 242 241 239 239 240 241 242 243 243 243 243 244
34 27 357 307 331 338 260 15 32 173 314 351 1 13 26 42 56 47 29 14 22 33 38 37 38 40 43 49 53 52 52 52 54 58 59 60 64 67 68 68 65 63 66 70 71 70 65 63 62 58 55 51 265 245 248 246 236 232 235 236 238 239 238 238 239 238 236 236 237 240 244 246 247 245 243 241 239 237 238 239 240 241 242 242 242 243
10 355 313 261 276 289 233 262 316 264 247 34 43 41 31 39 46 42 35 30 27 31 37 39 38 39 42 46 49 49 48 47 48 51 52 53 56 60 65 68 66 61 59 61 67 69 66 69 68 54 46 40 5 272 262 260 245 240 242 243 246 247 245 242 241 240 238 236 234 236 239 244 247 246 243 241 238 236 235 237 238 239 239 240 240 241
318 332 338 287 264 287 272 276 329 327 351 55 61 57 46 41 37 33 35 37 33 30 33 37 39 40 40 42 44 45 45 44 45 45 45 46 47 48 54 60 63 62 57 54 54 53 50 52 45 31 30 21 352 317 290 272 255 249 249 247 250 252 249 245 241 239 237 233 230 231 234 238 243 244 242 240 238 236 236 236 236 237 237 238 239 239
327 357 354 304 284 320 301 342 353 352 26 55 57 55 47 38 34 33 30 31 36 37 30 29 37 44 43 41 40 41 42 44 44 40 39 41 41 40 42 47 54 57 56 51 47 43 42 36 21 11 6 355 341 319 291 276 265 258 252 245 245 249 249 246 239 233 230 226 223 224 227 231 235 238 238 236 236 235 234 234 235 237 236 236 237 238
333 349 344 310 322 318 274 337 355 352 33 57 47 42 45 42 37 33 28 23 29 35 31 26 32 41 45 43 40 37 38 40 41 39 38 38 39 37 38 42 47 52 53 50 45 39 33 25 13 3 355 349 345 331 307 286 272 265 258 245 238 241 247 247 240 231 224 220 219 220 222 225 229 232 231 229 227 227 228 229 232 235 237 238 239 240
305 320 335 343 333 306 271 359 2 352 2 30 23 19 27 28 20 16 16 13 12 16 22 28 32 37 42 42 39 36 35 33 32 34 35 36 37 37 37 39 44 48 48 47 44 36 25 18 11 358 347 343 338 332 324 305 281 266 260 251 241 238 241 244 242 236 229 223 220 219 219 221 224 226 225 222 220 220 220 222 227 232 236 240 241 242
314 316 351 351 330 298 304 342 353 346 309 324 337 341 346 350 351 350 354 360 2 4 12 26 36 37 35 36 36 35 33 26 21 23 28 31 30 28 28 31 35 41 46 45 41 33 24 15 3 348 340 337 332 326 321 310 289 268 260 255 247 242 242 241 239 234 229 224 219 217 217 218 220 221 220 219 218 218 218 221 225 228 231 233 236 239
332 326 331 328 296 280 291 300 306 307 289 293 303 313 319 325 334 337 338 349 360 3 9 19 27 25 22 23 26 28 27 19 12 13 19 22 21 19 20 20 22 28 35 37 34 28 19 4 349 339 334 333 331 322 312 306 296 275 261 255 249 245 243 240 236 230 224 219 215 212 214 217 218 218 217 217 218 219 218 220 222 223 224 226 228 229
Height
1462 1470 1470 1466 1462 1462 1462 1464 1468 1469 1469 1472 1474 1476 1476 1476 1473 1464 1459 1453 1451 1464 1469 1465 1465 1466 1470 1469 1466 1471 1475 1477 1480 1482 1484 1484 1485 1487 1489 1492 1495 1498 1500 1504 1508 1510 1513 1516 1518 1521 1523 1525 1528 1530 1531 1533 1536 1538 1539 1541 1543 1546 1549 1551 1553 1555 1557 1559 1561 1563 1565 1566 1568 1570 1571 1573 1574 1575 1577 1578 1580 1581 1582 1582 1583 1584
1462 1469 1461 1455 1457 1459 1460 1462 1465 1468 1469 1470 1472 1475 1475 1474 1471 1459 1455 1452 1449 1462 1467 1461 1463 1465 1466 1465 1462 1466 1472 1475 1475 1476 1478 1479 1481 1482 1484 1487 1491 1495 1499 1502 1506 1508 1510 1513 1515 1518 1520 1522 1524 1526 1528 1530 1532 1535 1537 1539 1540 1543 1546 1548 1550 1552 1554 1556 1558 1560 1562 1564 1566 1568 1569 1571 1572 1574 1575 1577 1578 1579 1581 1581 1582 1582
1465 1461 1449 1450 1456 1457 1460 1460 1464 1467 1468 1471 1471 1474 1476 1472 1468 1460 1452 1450 1450 1459 1465 1461 1463 1464 1461 1460 1460 1461 1465 1468 1468 1468 1470 1472 1475 1479 1480 1483 1486 1491 1496 1499 1501 1504 1506 1509 1512 1514 1516 1518 1520 1522 1525 1527 1530 1533 1535 1537 1539 1541 1543 1545 1548 1550 1552 1554 1557 1559 1560 1563 1565 1566 1568 1570 1572 1573 1574 1575 1577 1578 1579 1580 1580 1581
1462 1450 1443 1451 1455 1456 1460 1460 1462 1467 1468 1470 1470 1474 1475 1468 1469 1468 1456 1451 1450 1453 1457 1458 1461 1462 1461 1462 1461 1458 1458 1460 1462 1462 1463 1464 1466 1469 1473 1476 1481 1485 1490 1493 1496 1499 1502 1505 1508 1510 1511 1514 1517 1519 1522 1524 1527 1529 1532 1534 1536 1538 1540 1543 1545 1548 1550 1553 1556 1558 1560 1562 1564 1566 1568 1569 1571 1572 1573 1574 1575 1576 1577 1578 1579 1580
1451 1441 1441 1450 1452 1454 1460 1459 1462 1467 1468 1468 1466 1469 1470 1464 1465 1464 1456 1453 1453 1451 1449 1455 1467 1466 1463 1469 1466 1459 1457 1458 1459 1461 1463 1463 1463 1465 1469 1473 1477 1480 1483 1487 1491 1494 1497 1500 1502 1505 1508 1510 1513 1515 1517 1520 1523 1525 1528 1531 1533 1536 1538 1540 1543 1545 1549 1552 1554 1557 1559 1561 1563 1565 1566 1567 1568 1569 1570 1572 1573 1574 1575 1577 1578 1579
1445 1440 1440 1446 1450 1452 1457 1458 1458 1462 1467 1468 1461 1459 1461 1460 1459 1457 1456 1459 1465 1466 1451 1453 1479 1479 1463 1466 1467 1460 1460 1460 1460 1462 1462 1463 1465 1466 1469 1471 1474 1477 1479 1482 1485 1489 1492 1495 1498 1501 1504 1506 1508 1510 1513 1516 1519 1522 1525 1527 1530 1533 1536 1538 1540 1543 1546 1548 1551 1553 1555 1557 1559 1561 1562 1563 1564 1566 1567 1569 1570 1572 1574 1575 1576 1577
1440 1439 1440 1444 1448 1450 1454 1455 1453 1455 1466 1467 1455 1450 1453 1456 1457 1456 1458 1464 1472 1472 1452 1445 1471 1479 1465 1463 1462 1457 1459 1459 1459 1461 1459 1460 1463 1464 1465 1467 1470 1474 1477 1479 1482 1485 1488 1491 1494 1496 1498 1501 1503 1506 1510 1513 1516 1519 1522 1525 1527 1530 1533 1536 1538 1541 1543 1545 1548 1550 1551 1553 1554 1556 1558 1560 1562 1564 1566 1567 1569 1571 1572 1573 1575 1576
1434 1439 1441 1442 1445 1449 1452 1452 1447 1449 1460 1460 1448 1447 1451 1453 1456 1454 1458 1466 1465 1462 1455 1446 1454 1468 1468 1460 1454 1452 1456 1458 1459 1460 1458 1457 1459 1459 1460 1463 1465 1469 1472 1475 1478 1481 1484 1487 1489 1491 1493 1495 1499 1503 1507 1510 1513 1516 1519 1522 1525 1527 1530 1533 1536 1538 1540 1542 1544 1547 1549 1550 1552 1553 1555 1558 1561 1563 1565 1566 1568 1569 1570 1572 1573 1574
1429 1437 1439 1440 1444 1446 1444 1442 1441 1444 1452 1451 1443 1446 1449 1449 1451 1450 1457 1464 1460 1463 1468 1456 1451 1466 1468 1453 1447 1450 1456 1461 1460 1457 1456 1455 1455 1456 1457 1459 1461 1465 1468 1470 1474 1477 1480 1483 1485 1487 1490 1492 1496 1500 1504 1507 1510 1513 1516 1519 1522 1525 1528 1530 1533 1536 1537 1540 1542 1544 1546 1548 1549 1551 1554 1557 1559 1562 1563 1564 1566 1567 1569 1570 1571 1573
1428 1429 1432 1436 1440 1439 1437 1435 1437 1442 1446 1443 1441 1445 1446 1447 1447 1448 1457 1461 1461 1471 1474 1459 1454 1467 1467 1450 1447 1454 1456 1458 1456 1450 1449 1448 1449 1451 1453 1456 1459 1463 1467 1468 1470 1473 1476 1479 1482 1486 1489 1492 1494 1496 1500 1504 1507 1511 1514 1517 1519 1522 1525 1527 1530 1533 1535 1538 1540 1542 1543 1545 1547 1549 1552 1555 1557 1560 1561 1562 1564 1565 1567 1568 1570 1571
1423 1423 1426 1428 1430 1430 1431 1433 1433 1436 1438 1439 1442 1447 1449 1450 1448 1449 1454 1456 1468 1477 1467 1454 1451 1460 1466 1452 1442 1446 1445 1443 1445 1446 1446 1445 1446 1447 1448 1452 1455 1459 1462 1465 1468 1471 1474 1478 1482 1485 1489 1491 1493 1494 1498 1501 1504 1508 1510 1514 1517 1519 1522 1525 1527 1530 1532 1535 1537 1539 1541 1543 1545 1547 1549 1552 1554 1556 1558 1560 1561 1563 1565 1566 1568 1570
1423 1424 1422 1419 1420 1423 1427 1431 1430 1430 1432 1437 1443 1449 1457 1459 1455 1457 1457 1459 1477 1480 1459 1448 1446 1453 1464 1452 1434 1432 1428 1426 1431 1437 1440 1440 1441 1443 1445 1448 1450 1454 1458 1462 1466 1469 1472 1477 1480 1483 1485 1488 1490 1492 1494 1497 1500 1504 1507 1510 1514 1516 1519 1522 1524 1527 1529 1532 1534 1536 1538 1541 1543 1545 1547 1549 1551 1553 1555 1557 1559 1561 1563 1564 1566 1568
1424 1422 1419 1417 1415 1416 1425 1432 1432 1431 1431 1438 1444 1450 1465 1471 1469 1472 1469 1466 1475 1470 1449 1443 1445 1450 1454 1441 1426 1423 1420 1419 1421 1421 1426 1431 1434 1438 1441 1444 1446 1451 1455 1458 1462 1466 1468 1472 1474 1477 1480 1483 1486 1487 1490 1493 1496 1500 1503 1507 1510 1513 1515 1518 1521 1523 1526 1528 1531 1533 1536 1538 1541 1543 1545 1547 1548 1551 1552 1555 1557 1558 1560 1562 1564 1565
1428 1421 1416 1418 1415 1411 1418 1429 1435 1435 1433 1438 1442 1449 1463 1473 1479 1483 1475 1467 1468 1459 1442 1438 1444 1449 1445 1431 1419 1416 1413 1414 1416 1416 1418 1422 1426 1431 1434 1438 1442 1447 1451 1454 1457 1461 1464 1467 1470 1473 1476 1478 1481 1483 1486 1489 1493 1496 1500 1503 1506 1509 1512 1515 1517 1520 1523 1525 1527 1530 1533 1535 1538 1540 1542 1545 1546 1549 1551 1552 1555 1556 1558 1560 1561 1563
1436 1433 1416 1414 1414 1410 1412 1418 1424 1427 1431 1432 1430 1438 1450 1454 1463 1472 1468 1464 1463 1454 1443 1440 1444 1446 1440 1426 1412 1407 1406 1406 1410 1414 1416 1416 1418 1422 1427 1433 1438 1442 1447 1451 1454 1457 1460 1463 1467 1470 1473 1475 1477 1480 1483 1486 1489 1492 1495 1498 1502 1505 1508 1511 1514 1516 1519 1522 1524 1527 1530 1533 1535 1538 1540 1542 1544 1547 1549 1550 1553 1554 1556 1558 1560 1562
1431 1429 1410 1406 1408 1407 1409 1409 1409 1419 1429 1427 1422 1432 1440 1435 1439 1450 1452 1448 1448 1450 1445 1439 1438 1432 1424 1415 1405 1404 1405 1403 1406 1410 1414 1418 1418 1421 1427 1431 1435 1438 1442 1447 1450 1453 1456 1459 1464 1467 1470 1473 1475 1477 1480 1482 1485 1488 1491 1495 1498 1501 1504 1507 1510 1513 1515 1518 1522 1524 1527 1530 1533 1535 1538 1540 1542 1545 1547 1549 1551 1553 1554 1556 1559 1560
1429 1422 1405 1404 1404 1400 1403 1403 1402 1412 1422 1423 1425 1428 1424 1419 1426 1440 1446 1438 1438 1452 1448 1435 1431 1425 1420 1416 1406 1405 1407 1405 1406 1408 1410 1415 1418 1422 1427 1429 1432 1435 1438 1442 1445 1447 1451 1455 1459 1463 1466 1469 1472 1475 1476 1478 1480 1483 1487 1491 1495 1498 1501 1504 1506 1509 1512 1516 1519 1521 1524 1527 1530 1533 1535 1537 1540 1542 1545 1547 1549 1551 1553 1555 1557 1559
1436 1428 1406 1401 1403 1395 1393 1398 1398 1398 1405 1416 1422 1417 1413 1418 1423 1431 1445 1446 1447 1458 1449 1433 1432 1430 1430 1426 1410 1405 1410 1408 1407 1407 1407 1410 1415 1420 1424 1425 1428 1430 1433 1436 1439 1443 1447 1451 1455 1459 1462 1465 1468 1470 1472 1474 1477 1481 1484 1488 1491 1495 1497 1500 1503 1506 1510 1513 1516 1519 1521 1524 1527 1530 1532 1535 1538 1540 1542 1544 1546 1549 1551 1552 1554 1556
1441 1438 1413 1396 1398 1392 1387 1397 1404 1396 1392 1400 1405 1403 1411 1428 1431 1430 1440 1448 1454 1460 1452 1438 1434 1430 1429 1425 1412 1408 1408 1405 1405 1406 1406 1408 1412 1415 1418 1421 1424 1427 1430 1434 1437 1442 1445 1448 1451 1454 1458 1461 1464 1467 1469 1473 1476 1479 1482 1485 1488 1491 1494 1498 1501 1504 1507 1510 1513 1516 1518 1521 1524 1527 1530 1533 1536 1538 1540 1542 1544 1546 1548 1550 1552 1554
1441 1443 1425 1397 1393 1393 1389 1397 1406 1401 1393 1393 1398 1400 1404 1415 1423 1425 1429 1434 1445 1455 1453 1447 1441 1431 1421 1413 1408 1405 1401 1398 1400 1404 1405 1404 1406 1409 1412 1416 1420 1424 1428 1431 1434 1438 1440 1443 1446 1449 1453 1457 1461 1465 1468 1471 1474 1476 1479 1482 1485 1488 1491 1495 1498 1501 1504 1506 1509 1512 1515 1518 1521 1524 1527 1530 1533 1535 1537 1539 1541 1543 1545 1548 1550 1551
1441 1445 1437 1409 1397 1400 1397 1393 1395 1397 1397 1398 1402 1405 1405 1407 1413 1418 1421 1421 1430 1444 1449 1450 1448 1431 1409 1399 1398 1396 1393 1391 1392 1397 1399 1398 1398 1403 1407 1411 1415 1420 1424 1427 1430 1434 1437 1440 1443 1446 1451 1455 1459 1463 1466 1468 1470 1473 1476 1478 1481 1484 1488 1491 1495 1498 1501 1503 1506 1509 1512 1515 1518 1521 1524 1527 1529 1532 1534 1536 1538 1541 1543 1545 1547 1549
1449 1452 1449 1431 1417 1411 1398 1385 1381 1384 1390 1394 1400 1402 1402 1406 1412 1424 1431 1421 1417 1428 1434 1439 1443 1423 1395 1386 1387 1386 1386 1384 1383 1387 1392 1393 1394 1399 1402 1406 1410 1415 1420 1424 1427 1431 1434 1437 1441 1445 1449 1454 1459 1462 1464 1466 1468 1470 1472 1474 1477 1481 1484 1487 1491 1494 1497 1500 1503 1505 1508 1511 1514 1518 1521 1523 1526 1528 1531 1533 1536 1538 1540 1542 1544 1546
1454 1453 1452 1441 1426 1411 1394 1382 1378 1379 1381 1385 1391 1393 1396 1401 1406 1420 1431 1423 1416 1421 1420 1424 1432 1414 1385 1378 1380 1378 1377 1376 1376 1380 1386 1390 1393 1396 1399 1402 1406 1411 1415 1419 1423 1428 1431 1434 1438 1443 1447 1451 1455 1458 1461 1463 1465 1467 1468 1471 1475 1477 1480 1484 1487 1490 1494 1497 1499 1502 1505 1508 1511 1514 1517 1520 1522 1525 1527 1530 1533 1535 1537 1539 1541 1543
1452 1452 1454 1445 1423 1402 1388 1381 1378 1376 1378 1385 1388 1388 1390 1395 1396 1401 1410 1413 1416 1420 1418 1425 1433 1411 1381 1374 1375 1372 1369 1369 1371 1375 1380 1386 1391 1394 1397 1399 1403 1408 1412 1415 1420 1425 1429 1432 1437 1441 1444 1448 1451 1455 1458 1460 1461 1464 1466 1470 1472 1474 1477 1481 1484 1488 1491 1493 1496 1499 1502 1505 1508 1511 1513 1516 1518 1521 1524 1527 1530 1532 1534 1536 1538 1540
1458 1458 1462 1457 1435 1409 1395 1392 1388 1382 1381 1384 1384 1383 1384 1386 1390 1395 1400 1406 1414 1416 1414 1426 1431 1407 1379 1371 1370 1367 1366 1366 1368 1372 1376 1382 1387 1391 1394 1396 1400 1405 1409 1414 1419 1423 1427 1432 1435 1439 1441 1443 1447 1450 1453 1455 1458 1461 1464 1467 1469 1472 1476 1479 1482 1485 1488 1491 1494 1496 1499 1502 1504 1507 1509 1512 1515 1517 1521 1524 1526 1529 1531 1533 1535 1537
1462 1460 1462 1464 1452 1432 1418 1411 1404 1399 1393 1385 1378 1377 1381 1383 1388 1395 1401 1410 1415 1412 1409 1417 1418 1400 1380 1373 1370 1366 1364 1366 1368 1370 1373 1377 1381 1386 1391 1394 1398 1402 1406 1412 1417 1421 1425 1428 1431 1434 1437 1440 1442 1445 1449 1452 1455 1459 1462 1465 1468 1471 1474 1477 1480 1482 1485 1488 1490 1493 1495 1498 1500 1502 1505 1508 1511 1514 1517 1520 1523 1525 1527 1530 1532 1534
1459 1458 1457 1459 1455 1443 1432 1419 1408 1408 1408 1398 1382 1376 1378 1382 1385 1390 1400 1408 1409 1408 1410 1407 1402 1397 1387 1378 1375 1370 1366 1367 1369 1371 1372 1374 1378 1382 1387 1392 1396 1399 1404 1409 1413 1418 1421 1425 1428 1430 1433 1436 1439 1442 1445 1449 1453 1457 1460 1463 1466 1469 1471 1474 1477 1479 1482 1485 1487 1489 1491 1493 1496 1498 1501 1504 1507 1511 1514 1516 1519 1521 1523 1526 1528 1530
1460 1459 1454 1451 1447 1439 1433 1422 1411 1408 1407 1399 1387 1378 1375 1378 1383 1388 1395 1398 1397 1406 1412 1401 1394 1398 1392 1380 1377 1374 1368 1368 1370 1370 1371 1373 1376 1379 1383 1388 1393 1397 1401 1405 1410 1414 1417 1420 1424 1427 1430 1433 1436 1440 1443 1447 1451 1454 1457 1460 1463 1466 1469 1471 1474 1476 1478 1481 1483 1485 1487 1490 1492 1495 1498 1501 1504 1507 1510 1512 1514 1517 1519 1522 1524 1526
1462 1461 1451 1446 1443 1433 1425 1416 1407 1403 1397 1389 1383 1375 1369 1374 1380 1385 1389 1390 1390 1397 1402 1395 1392 1395 1388 1378 1375 1372 1367 1366 1366 1366 1368 1371 1375 1378 1381 1386 1390 1394 1399 1403 1407 1410 1413 1416 1419 1423 1427 1430 1434 1438 1441 1445 1448 1451 1455 1457 1460 1463 1465 1467 1470 1472 1474 1477 1478 1481 1484 1487 1490 1492 1495 1498 1500 1503 1505 1508 1511 1513 1516 1518 1519 1522
1461 1458 1449 1447 1443 1429 1417 1409 1400 1395 1389 1383 1377 1369 1364 1369 1374 1378 1383 1385 1385 1386 1386 1387 1390 1389 1379 1373 1371 1368 1365 1364 1364 1365 1367 1369 1374 1378 1381 1385 1388 1392 1397 1402 1405 1408 1410 1412 1415 1419 1424 1428 1432 1436 1439 1442 1445 1448 1451 1454 1457 1459 1462 1464 1467 1469 1471 1473 1475 1478 1481 1484 1487 1489 1492 1494 1496 1499 1502 1504 1507 1510 1512 1513 1516 1518
1462 1458 1450 1449 1445 1427 1411 1404 1397 1392 1388 1382 1375 1367 1362 1365 1369 1375 1380 1382 1385 1385 1382 1385 1390 1386 1375 1369 1368 1367 1366 1366 1368 1369 1368 1369 1372 1377 1380 1384 1387 1391 1395 1399 1403 1406 1409 1411 1414 1418 1422 1426 1429 1432 1435 1438 1442 1445 1448 1451 1453 1456 1459 1462 1464 1466 1468 1470 1472 1475 1478 1481 1483 1486 1488 1490 1493 1495 1498 1501 1504 1506 1508 1510 1512 1514
1462 1459 1452 1452 1451 1432 1411 1405 1403 1396 1388 1379 1372 1369 1367 1366 1369 1372 1374 1377 1383 1384 1384 1389 1392 1387 1376 1370 1369 1370 1369 1370 1371 1371 1370 1370 1372 1375 1379 1382 1386 1389 1393 1397 1401 1404 1408 1412 1414 1417 1420 1423 1426 1430 1433 1435 1439 1442 1445 1448 1451 1454 1457 1459 1461 1463 1465 1468 1470 1473 1475 1478 1480 1483 1485 1487 1490 1492 1495 1498 1500 1502 1504 1506 1508 1511
1461 1461 1456 1456 1456 1436 1414 1411 1409 1401 1393 1387 1382 1379 1373 1367 1366 1371 1376 1381 1384 1384 1387 1389 1385 1379 1374 1370 1372 1375 1375 1374 1375 1373 1372 1371 1372 1375 1378 1381 1385 1388 1390 1394 1398 1402 1406 1410 1412 1415 1417 1420 1424 1427 1430 1433 1436 1439 1441 1445 1449 1452 1455 1457 1458 1461 1463 1465 1468 1470 1472 1475 1477 1479 1482 1484 1487 1490 1492 1495 1496 1498 1500 1502 1505 1508
1460 1461 1458 1457 1456 1440 1422 1416 1411 1403 1403 1398 1388 1383 1380 1373 1374 1384 1393 1395 1390 1387 1386 1381 1375 1373 1374 1371 1373 1378 1379 1378 1378 1376 1374 1372 1373 1377 1380 1383 1386 1388 1391 1393 1396 1400 1404 1408 1411 1414 1416 1419 1422 1425 1428 1431 1434 1437 1440 1444 1447 1449 1452 1454 1456 1458 1460 1462 1465 1467 1469 1472 1474 1476 1479 1481 1484 1487 1489 1490 1492 1494 1497 1499 1502 1504
1461 1460 1457 1455 1453 1442 1430 1423 1416 1410 1407 1397 1385 1382 1384 1381 1380 1385 1393 1396 1394 1391 1388 1382 1376 1375 1376 1373 1371 1375 1379 1379 1378 1378 1378 1377 1376 1378 1382 1386 1389 1391 1393 1395 1398 1401 1405 1408 1411 1414 1416 1419 1422 1425 1429 1431 1434 1437 1440 1442 1444 1447 1449 1452 1453 1455 1457 1459 1461 1464 1466 1469 1471 1474 1476 1479 1481 1483 1485 1486 1488 1490 1493 1496 1498 1499
1459 1457 1455 1453 1448 1440 1436 1433 1423 1410 1398 1388 1383 1382 1383 1385 1384 1386 1395 1402 1400 1395 1393 1389 1383 1380 1379 1375 1372 1374 1376 1376 1378 1383 1386 1385 1382 1382 1384 1388 1391 1393 1395 1398 1400 1403 1407 1409 1412 1414 1417 1420 1424 1427 1429 1431 1433 1436 1438 1440 1443 1445 1447 1450 1451 1453 1454 1456 1458 1461 1463 1466 1468 1471 1473 1475 1477 1479 1481 1483 1485 1487 1490 1492 1494 1496
1455 1454 1454 1452 1445 1438 1440 1439 1424 1407 1397 1396 1398 1396 1395 1399 1398 1397 1404 1409 1403 1397 1395 1393 1389 1386 1383 1379 1377 1375 1371 1372 1383 1392 1393 1391 1388 1387 1387 1390 1393 1395 1397 1400 1403 1405 1409 1411 1413 1416 1419 1422 1425 1428 1430 1432 1434 1436 1438 1440 1442 1444 1446 1448 1449 1450 1452 1453 1455 1458 1460 1463 1465 1467 1470 1472 1473 1475 1477 1480 1482 1484 1487 1489 1490 1492
1450 1450 1452 1452 1445 1439 1443 1443 1431 1420 1415 1414 1413 1405 1397 1398 1398 1396 1404 1410 1406 1400 1398 1394 1391 1390 1388 1386 1382 1373 1367 1380 1398 1403 1399 1397 1394 1391 1391 1393 1395 1396 1399 1402 1405 1407 1410 1412 1414 1417 1420 1422 1425 1428 1430 1432 1434 1435 1437 1439 1440 1442 1444 1445 1446 1447 1449 1450 1453 1455 1458 1460 1462 1464 1466 1468 1469 1472 1474 1477 1479 1481 1483 1485 1486 1487
1447 1447 1449 1453 1450 1445 1447 1447 1440 1434 1428 1422 1415 1403 1392 1392 1390 1389 1403 1417 1413 1405 1402 1397 1393 1391 1390 1389 1383 1372 1375 1395 1409 1407 1403 1402 1398 1395 1395 1396 1397 1399 1401 1404 1407 1409 1410 1413 1415 1417 1420 1422 1425 1427 1429 1431 1433 1435 1436 1438 1439 1440 1441 1442 1443 1445 1446 1448 1451 1453 1455 1457 1458 1460 1462 1464 1466 1469 1471 1473 1476 1478 1479 1481 1482 1483
1448 1449 1449 1452 1451 1447 1446 1444 1438 1436 1432 1423 1413 1402 1394 1389 1383 1388 1412 1428 1420 1410 1407 1403 1398 1395 1394 1390 1384 1381 1390 1404 1409 1407 1406 1404 1400 1398 1398 1398 1400 1401 1403 1405 1408 1409 1411 1413 1415 1417 1420 1422 1424 1427 1428 1430 1432 1434 1435 1436 1437 1438 1438 1439 1441 1443 1445 1447 1448 1450 1452 1453 1455 1457 1459 1461 1463 1466 1468 1470 1472 1474 1476 1477 1478 1480
1452 1452 1450 1450 1449 1446 1446 1443 1436 1435 1433 1425 1414 1403 1392 1385 1389 1407 1429 1432 1421 1415 1413 1408 1403 1401 1399 1394 1391 1394 1402 1406 1406 1407 1407 1404 1402 1401 1400 1400 1402 1403 1404 1407 1409 1411 1413 1414 1416 1418 1420 1422 1424 1426 1428 1429 1430 1432 1433 1434 1435 1436 1437 1438 1440 1442 1443 1444 1446 1447 1449 1450 1452 1453 1455 1458 1461 1463 1464 1466 1469 1471 1472 1474 1475 1477
1455 1453 1449 1448 1448 1446 1443 1440 1436 1435 1432 1425 1416 1405 1392 1394 1412 1428 1430 1426 1422 1420 1416 1411 1408 1406 1403 1401 1401 1404 1408 1408 1407 1407 1406 1405 1405 1403 1402 1403 1403 1404 1406 1408 1410 1412 1414 1416 1418 1420 1421 1423 1424 1425 1427 1428 1429 1430 1431 1432 1433 1434 1435 1436 1438 1439 1440 1442 1443 1444 1445 1447 1449 1450 1452 1455 1457 1459 1461 1463 1465 1467 1469 1471 1472 1473
1451 1454 1453 1450 1446 1443 1440 1439 1443 1443 1435 1425 1419 1411 1405 1413 1427 1430 1425 1425 1425 1420 1416 1414 1412 1409 1408 1407 1407 1409 1410 1410 1410 1410 1410 1409 1408 1406 1406 1405 1406 1407 1409 1411 1412 1414 1416 1417 1419 1421 1422 1423 1424 1425 1426 1427 1428 1429 1429 1430 1431 1431 1432 1433 1435 1436 1438 1439 1440 1442 1443 1444 1446 1448 1449 1451 1454 1456 1458 1460 1462 1464 1465 1467 1469 1470
1448 1454 1459 1454 1448 1447 1448 1446 1445 1443 1435 1428 1426 1426 1425 1427 1428 1427 1428 1428 1424 1418 1416 1415 1413 1413 1413 1411 1411 1412 1411 1411 1412 1413 1413 1413 1412 1411 1410 1409 1409 1411 1413 1414 1417 1418 1419 1420 1421 1422 1423 1424 1424 1425 1426 1426 1427 1427 1427 1428 1428 1429 1430 1431 1432 1434 1435 1437 1438 1439 1441 1442 1443 1445 1446 1448 1451 1453 1455 1457 1459 1460 1462 1463 1465 1467
1451 1452 1456 1454 1448 1447 1447 1444 1439 1435 1433 1432 1432 1432 1432 1430 1428 1429 1431 1429 1423 1419 1417 1414 1414 1415 1415 1414 1415 1414 1413 1414 1414 1413 1412 1413 1413 1413 1412 1412 1412 1413 1414 1416 1418 1419 1421 1421 1422 1423 1424 1424 1425 1426 1426 1425 1425 1426 1426 1426 1427 1427 1427 1428 1430 1431 1432 1434 1435 1437 1438 1440 1441 1443 1444 1446 1448 1450 1452 1454 1456 1457 1458 1460 1462 1464
1451 1450 1451 1450 1445 1442 1440 1438 1436 1434 1433 1434 1434 1434 1433 1431 1429 1430 1431 1430 1427 1422 1418 1416 1416 1416 1416 1417 1417 1416 1417 1418 1417 1415 1414 1414 1413 1414 1413 1413 1413 1413 1414 1416 1418 1419 1420 1420 1421 1422 1423 1424 1424 1424 1424 1424 1424 1425 1425 1426 1426 1426 1426 1426 1427 1428 1430 1431 1433 1434 1436 1438 1439 1440 1442 1444 1445 1447 1449 1451 1452 1454 1456 1458 1459 1461
1449 1450 1450 1448 1445 1443 1441 1437 1436 1436 1436 1435 1436 1435 1434 1432 1431 1430 1430 1431 1430 1426 1422 1420 1419 1418 1419 1420 1420 1420 1421 1420 1419 1419 1418 1417 1417 1417 1415 1414 1414 1414 1414 1416 1417 1418 1418 1418 1419 1420 1422 1423 1424 1424 1424 1424 1424 1425 1425 1425 1426 1426 1425 1426 1426 1427 1428 1429 1431 1432 1434 1436 1437 1439 1440 1442 1444 1445 1447 1449 1450 1452 1453 1455 1457 1458
1452 1451 1451 1449 1447 1444 1441 1438 1437 1438 1437 1436 1436 1435 1435 1434 1433 1430 1429 1429 1429 1429 1428 1426 1423 1422 1421 1422 1423 1424 1423 1422 1422 1422 1420 1420 1420 1419 1418 1417 1417 1416 1416 1416 1417 1417 1418 1418 1419 1420 1422 1423 1424 1424 1425 1425 1425 1425 1425 1425 1425 1425 1425 1425 1425 1426 1427 1428 1429 1431 1432 1434 1435 1437 1438 1440 1442 1443 1444 1446 1448 1450 1451 1453 1455 1456
1454 1453 1453 1452 1450 1445 1440 1438 1439 1437 1434 1434 1435 1436 1435 1435 1435 1433 1431 1429 1428 1428 1430 1430 1428 1426 1424 1425 1426 1426 1425 1425 1424 1424 1423 1423 1423 1422 1421 1420 1419 1419 1419 1418 1418 1418 1419 1419 1420 1421 1422 1424 1424 1424 1425 1424 1425 1425 1424 1424 1425 1425 1424 1425 1424 1425 1426 1427 1428 1429 1431 1432 1434 1435 1436 1437 1439 1440 1443 1445 1446 1448 1450 1452 1453 1454
1457 1456 1455 1456 1456 1450 1443 1441 1443 1443 1439 1435 1435 1436 1435 1436 1436 1435 1433 1431 1429 1427 1428 1428 1428 1427 1426 1427 1427 1427 1427 1427 1426 1425 1425 1425 1424 1424 1423 1422 1421 1421 1419 1418 1417 1417 1418 1419 1420 1421 1423 1424 1424 1424 1424 1424 1424 1424 1424 1424 1424 1424 1424 1424 1424 1424 1425 1425 1427 1428 1429 1430 1432 1433 1434 1435 1437 1439 1441 1443 1445 1447 1448 1450 1451 1453
1459 1458 1457 1458 1457 1450 1444 1443 1443 1442 1439 1435 1434 1435 1435 1435 1435 1435 1433 1431 1429 1427 1425 1425 1425 1425 1425 1426 1426 1426 1426 1426 1426 1426 1425 1424 1424 1423 1422 1422 1421 1419 1418 1417 1417 1418 1419 1421 1422 1422 1423 1424 1424 1424 1424 1424 1423 1423 1423 1423 1423 1423 1423 1423 1423 1424 1424 1425 1426 1426 1427 1429 1430 1431 1433 1434 1436 1438 1440 1442 1443 1445 1446 1448 1449 1450